#timestamp,LO_Frequency,Hit,StdDev 
1604260815.2,286047002.0,N
1604260835.0,286047001.3,N
1604260836.0,286047001.3,N
1604260855.8,286047001.8,N
1604260875.6,286047002.2,N
1604260895.5,286047001.8,N
1604260915.3,286047002.1,N
1604260935.1,286046999.9,N
1604260955.9,286047002.4,N
1604260975.7,286047001.7,N
1604260995.6,286047001.3,N
1604261015.4,286047002.5,Y
1604261035.2,286047000.1,P
1604261055.1,286047000.6,N
1604261056.0,286047000.6,N
1604261075.8,286046999.9,N
1604261095.7,286047002.8,Y
1604261115.5,286047001.2,P
1604261135.3,286046998.1,P
1604261155.2,286046998.6,N
1604261175.0,286047000.4,N
1604261175.9,286047000.4,N
1604261195.8,286047000.1,N
1604261215.6,286047001.0,N
1604261235.4,286047000.1,N
1604261255.3,286047002.0,N
1604261275.1,286047001.8,N
1604261295.8,286047000.2,N
1604261315.7,286047000.0,N
1604261335.5,286047002.3,N
1604261355.4,286047002.7,N
1604261375.2,286047002.8,N
1604261395.0,286047000.6,N
1604261395.9,286047000.6,N
1604261415.8,286047001.2,N
1604261435.6,286046998.6,N
1604261455.5,286046998.4,N
1604261475.3,286046998.3,N
1604261495.1,286046996.6,N
1604261515.9,286046998.9,N
1604261535.7,286047000.8,N
1604261555.5,286047000.7,N
1604261575.4,286047000.0,N
1604261595.2,286047001.2,N
1604261615.1,286047000.9,N
1604261616.0,286047000.9,N
1604261635.8,286047000.3,N
1604261655.6,286046999.8,N
1604261675.5,286047000.7,N
1604261695.3,286047000.4,N
1604261715.1,286047000.0,N
1604261735.9,286047000.8,N
1604261755.7,286047000.6,N
1604261775.6,286047000.5,N
1604261795.4,286047000.3,N
1604261815.2,286046998.1,N
1604261835.1,286047002.4,N
1604261836.0,286047002.4,N
1604261855.8,286047001.1,N
1604261875.7,286046998.2,N
1604261895.5,286047000.7,N
1604261915.3,286046998.4,N
1604261935.2,286046998.7,N
1604261955.9,286047001.2,N
1604261975.7,286047001.0,N
1604261995.6,286046999.9,N
1604262015.4,286047000.0,N
1604262035.3,286047000.5,N
1604262055.1,286047000.6,N
1604262056.0,286047000.6,N
1604262075.8,286047001.2,N
1604262095.7,286047000.5,N
1604262115.5,286047002.4,N
1604262135.3,286046999.7,N
1604262155.2,286046999.9,N
1604262175.0,286046999.7,N
1604262175.9,286046999.7,N
1604262195.8,286047002.7,N
1604262215.6,286047002.1,N
1604262235.4,286047000.5,N
1604262255.3,286047000.4,N
1604262275.1,286047000.6,N
1604262295.9,286046999.7,N
1604262315.7,286047001.0,N
1604262335.5,286047000.4,N
1604262355.4,286046998.1,N
1604262375.2,286047000.1,N
1604262395.0,286047002.4,N
1604262395.9,286047002.4,N
1604262415.8,286047002.1,N
1604262435.6,286046999.8,N
1604262455.5,286047000.4,N
1604262475.3,286046999.9,N
1604262495.1,286047001.0,N
1604262515.9,286046998.5,N
1604262535.7,286047000.0,N
1604262555.5,286047002.2,N
1604262575.4,286047000.5,N
1604262595.2,286047000.0,N
1604262615.1,286047000.4,N
1604262616.0,286047000.4,N
1604262635.8,286047000.4,N
1604262655.6,286047002.7,N
1604262675.5,286047000.0,N
1604262695.3,286047000.6,N
1604262715.2,286047000.5,N
1604262735.9,286047000.5,N
1604262755.7,286047000.0,N
1604262775.6,286047000.0,N
1604262795.4,286047002.4,N
1604262815.2,286047001.5,N
1604262835.1,286047001.8,N
1604262836.0,286047001.8,N
1604262855.8,286046999.7,N
1604262875.7,286047000.3,N
1604262895.5,286047002.5,N
1604262915.3,286047002.4,N
1604262935.2,286047000.0,N
1604262955.0,286047000.3,N
1604262955.9,286047000.3,N
1604262975.7,286047000.3,N
1604262995.6,286047000.1,N
1604263015.4,286047002.8,N
1604263035.3,286047003.8,Y
1604263055.1,286047001.3,P
1604263075.8,286047001.9,P
1604263095.7,286047001.8,P
1604263115.5,286047001.7,Y
1604263135.4,286047002.4,P
1604263155.2,286047003.1,P
1604263175.0,286047004.3,P
1604263175.9,286047004.3,Y
1604263195.8,286046998.6,P
1604263215.6,286046998.3,N
1604263235.5,286046998.7,N
1604263255.3,286046998.9,N
1604263275.1,286046998.4,N
1604263295.9,286046999.5,N
1604263315.7,286046999.1,N
1604263335.5,286046999.6,N
1604263355.4,286046996.9,N
1604263375.2,286046998.8,N
1604263395.0,286047000.0,N
1604263396.0,286047000.0,N
1604263415.8,286047000.3,N
1604263435.6,286047001.0,N
1604263455.5,286047000.1,N
1604263475.3,286046998.1,N
1604263495.1,286047001.1,N
1604263515.9,286046998.6,N
1604263535.7,286046999.6,N
1604263555.6,286046996.9,N
1604263575.4,286046995.3,Y
1604263595.2,286046995.2,P
1604263615.1,286046996.2,N
1604263616.0,286046996.2,N
1604263635.8,286046994.1,Y
1604263655.7,286046997.5,P
1604263675.5,286046997.9,P
1604263695.3,286046995.3,P
1604263715.2,286046999.5,N
1604263735.9,286046998.0,N
1604263755.7,286046997.4,N
1604263775.6,286046996.6,N
1604263795.4,286046999.6,N
1604263815.3,286046998.9,N
1604263835.1,286046999.2,N
1604263836.0,286046999.2,N
1604263855.8,286046997.8,N
1604263875.7,286046997.1,N
1604263895.5,286046997.3,N
1604263915.3,286046996.6,N
1604263935.2,286046996.5,N
1604263955.0,286046996.5,N
1604263955.9,286046996.5,N
1604263975.8,286046996.5,N
1604263995.6,286046999.5,N
1604264015.4,286046999.2,N
1604264035.3,286046996.5,N
1604264055.1,286046997.0,N
1604264075.8,286046999.3,N
1604264095.7,286046996.9,N
1604264115.5,286046996.7,N
1604264135.4,286046997.2,N
1604264155.2,286046997.0,N
1604264175.0,286046996.5,N
1604264175.9,286046996.5,N
1604264195.8,286046996.5,N
1604264215.6,286046999.6,N
1604264235.5,286046996.7,N
1604264255.3,286046996.8,N
1604264275.1,286046998.6,N
1604264295.9,286046999.6,N
1604264315.7,286046999.4,N
1604264335.5,286046999.2,N
1604264355.4,286046998.2,N
1604264375.2,286046998.5,N
1604264395.1,286047000.8,N
1604264396.0,286047000.8,N
